Location: Lake Almanor
(40.2485°N, 121.1442°W)
Time: 01:13:28
(UTC-08:00)

STARLINK-1089 - Pass Details

Date: 02 February 2020
Orbit: 348 x 351 km, 53.0° (Epoch: 22 February)

Event Time Altitude Azimuth Distance (km) Brightness Sun altitude
Rises 18:59:03 0° 296° (WNW) 2,172 7.7 -18.4°
Reaches altitude 10° 19:01:25 10° 277° (W) 1,323 6.7 -18.8°
Maximum altitude 19:03:35 19° 229° (SW) 933 5.5 -19.2°
Drops below altitude 10° 19:05:44 10° 182° (S) 1,316 5.6 -19.6°
Enters shadow 19:06:07 - 177° (S) 1,434 5.8 -19.7°
